Vertical_Velocity
-2 -2 -0 0 -0 -1 0 -0 2 1 1 -0 1 -0 1 1 1 0 0 0 -1 -2 -0 -1 -3 -2 1 -0 0 -1 1 -2 -2 -0 -1 -2 -1 -1 -2 -0 -2 -1 -3 -1 -0 -1 2
1 -0 -1 0 1 0 1 0 2 0 0 1 1 2 1 -0 1 -1 -0 -1 -1 -1 -0 -1 -1 -1 1 0 -1 -1 -3 -1 -1 -0 -0 0 1 0 -2 -2 -1 -1 -1 -2 0 1 -1
-1 0 0 -1 -1 -2 1 1 1 0 1 1 -0 2 1 -0 -0 0 -1 -2 0 -1 -2 -1 -1 -1 -1 0 -1 -2 -1 0 -1 -0 -1 -2 -0 -0 -0 2 1 -0 -1 -1 -2 1 1
1 -0 0 -1 0 -1 -0 1 2 1 0 0 1 -0 0 -1 -1 -0 0 -1 0 -2 -2 -2 -1 -1 -1 -1 -1 -2 -1 -1 -0 -1 0 -1 0 1 -1 -2 0 0 1 0 -3 -1 2
0 -1 -1 0 0 -0 -1 1 1 2 1 -0 0 0 -1 -1 -0 1 -0 -0 0 -0 -0 -1 -1 -2 -2 -2 -2 -1 -1 -1 0 0 -1 -0 0 1 2 1 0 -1 0 -2 0 0 1
-1 1 0 0 0 -1 -1 -0 0 -0 -0 -1 -1 -1 -1 -1 0 1 1 -2 -2 -1 -1 -2 -2 -2 1 -1 -1 -1 -1 0 0 -0 0 -1 -1 -2 -1 -1 -2 1 0 -0 -3 -1 -1
-1 -1 2 0 0 1 0 0 -1 -1 -1 -2 -1 -1 -0 0 -1 0 1 0 0 -0 -1 -2 -1 -1 -2 -2 -1 -4 -2 -0 1 0 0 -0 -1 0 0 -0 -1 -0 1 -1 -2 3 -1
-0 1 -0 -0 -0 -1 -1 -0 0 -0 -1 -2 -1 -1 -0 0 1 -1 0 0 -0 1 1 -2 -1 1 1 -0 -0 -0 -0 -1 0 0 -2 -1 -2 -1 -0 0 -0 0 -1 -1 0 2 -3
-0 -2 -1 2 1 0 1 -1 -1 0 0 -1 -1 -1 -0 -0 -1 -0 -0 0 0 0 -1 -3 -2 -1 -1 0 1 0 1 1 0 -1 -1 -2 -1 -0 -0 -1 -2 -2 2 0 -2 -1 -2
1 0 -1 0 -0 -1 -1 -0 -1 -0 0 -0 -1 -0 -0 0 -0 -0 1 1 0 0 -1 -0 -0 -2 -1 1 1 0 -1 1 -1 0 1 1 0 -1 1 1 -0 -0 -2 -1 -1 -3 -1
-0 -1 1 0 1 1 0 1 0 -0 0 1 -1 -1 -0 -1 0 0 -0 -1 -0 -0 1 -0 0 0 -0 1 2 -1 -1 -0 -0 1 1 -0 -1 -0 -2 -4 -2 -1 -2 -1 1 -2 -3
1 1 0 1 1 -0 -1 -1 -1 -1 -0 1 2 -0 -0 0 -1 -1 -1 -1 1 -0 -1 -1 -0 -0 1 0 1 2 1 0 -1 0 0 0 2 -1 -1 -1 -1 -2 -3 -2 1 -3 -8
-1 1 1 0 1 1 0 1 -1 1 -2 -2 -2 -3 -2 -2 -1 -1 -1 -1 -1 -1 0 -1 -0 0 -0 -1 0 -1 -1 -1 -3 -3 -2 -1 -2 -0 -1 -2 -2 -3 -2 -10 -9 -6 -7
1 1 -0 0 0 1 -0 -1 0 0 -1 -1 -2 -2 -1 -2 -2 -2 -1 -1 -0 -1 -1 2 -2 -1 -2 -1 1 -1 -2 -3 -2 -3 -3 -2 2 1 4 3 -0 0 -0 1 -23 -9 9
-0 0 -0 0 1 0 0 -1 0 -2 -1 1 -0 0 0 -0 -2 -3 -3 -2 -2 -2 -1 -2 -1 0 -1 -3 -2 -2 -0 -1 1 2 -0 -8 1 2 0 2 3 5 4 4 -10 5 -9
4 -3 -1 -0 1 0 -1 -2 -1 -0 -1 -2 -2 -1 -0 0 -1 -1 -0 -1 -3 -2 -2 -1 -1 1 -0 -1 -1 -3 4 3 -3 -1 -2 -3 -16 1 -2 -1 2 -1 -0 -3 6 -18 -19
3 -4 -3 -2 -2 1 -2 -1 0 -0 -1 -1 -0 0 -1 -2 0 -1 -1 -1 -1 -3 -1 -1 -2 -5 -0 -4 -2 -3 -7 -5 -0 -3 -2 -2 6 6 2 7 3 3 1 -1 3 6 -8
11 9 6 6 -2 2 -0 -3 -3 -0 -1 -0 0 -1 1 1 -1 -2 -1 -0 1 -2 -3 -3 -2 -4 -2 1 1 -2 -1 2 -2 0 1 -0 -8 -4 -1 0 2 4 1 3 -3 2 2
-2 -1 15 8 4 -1 -3 -1 -3 -4 -2 0 -2 -2 -1 -2 -0 -2 -3 -2 -3 -2 -4 2 -3 1 1 -1 -12 1 4 2 -1 -1 -5 -3 -5 -3 -4 3 1 -1 3 2 -1 -1 14
7 -0 12 10 3 6 1 -1 -5 0 0 -1 -0 -1 -2 -2 -2 -0 -2 2 -8 0 -1 -5 -0 -4 -3 1 -1 -8 -3 -1 2 3 0 -5 5 2 -3 -8 -1 1 8 2 3 1 -3
18 0 7 27 6 5 4 3 -0 -3 0 -4 -3 1 -2 1 2 -1 -4 6 -1 -7 1 0 4 -4 -4 -1 -2 -3 -3 -1 1 1 -0 -2 -1 -1 6 0 -4 3 5 0 2 10 -10
-3 0 6 3 23 6 7 7 -7 3 -2 -0 -1 -2 -3 3 -0 -3 -3 5 0 -2 -2 4 -2 2 1 -1 -4 -4 2 0 4 2 -1 2 -8 0 6 -1 -5 -2 2 2 1 1 -3
-3 -3 0 1 1 16 4 13 14 -1 -5 -1 -4 2 -3 4 1 -1 -0 -5 2 -1 2 -3 0 -1 -3 -1 -2 -4 -4 1 -0 -2 -1 -2 -2 -2 -0 1 -1 1 8 4 4 -0 1
-1 -1 -5 0 5 2 5 -1 6 11 5 -4 3 -3 -5 -1 0 -6 4 -1 -3 -2 -3 1 -2 -2 3 -1 -2 -4 0 -1 -0 -1 1 -1 -0 -3 -12 1 -6 1 2 1 0 1 1
-2 3 5 1 4 3 5 2 -2 3 2 -3 -1 -2 -2 -3 0 2 -3 1 -0 -0 0 -4 -1 -3 1 -0 -1 -3 -0 -3 1 3 -0 -0 -2 -9 -4 -3 -2 7 5 -2 -7 3 -3
2 4 1 1 2 2 3 -1 -4 -3 2 -1 0 1 0 -2 4 2 0 -2 -2 1 0 1 0 -1 -0 1 1 -2 -3 -3 -9 -5 3 1 2 3 0 -6 -11 7 0 -4 -5 3 1
-2 1 1 1 2 4 6 0 -2 -2 -0 -3 -0 0 -3 -2 -0 -2 3 -2 2 -1 2 1 -5 -0 1 3 -0 -0 -3 -2 -5 -2 1 0 -0 4 -1 -6 -6 -2 -2 -2 -3 -6 -1
-0 5 1 1 -3 1 4 -5 -4 -1 1 2 -2 -1 -2 1 -5 2 1 1 1 -1 -1 -0 2 -1 -2 0 -1 4 -4 2 -3 -3 -3 -2 -5 5 -1 -2 -7 1 -2 2 1 -0 -1
4 6 1 4 -3 1 -3 -6 -2 -1 0 2 1 0 0 -3 -1 2 0 -1 3 1 1 -4 -3 11 -3 -1 -0 -0 -0 -0 -0 -5 3 -3 1 -1 3 2 -6 -5 -5 -4 -3 -3 -2
Height
5833 5834 5836 5838 5840 5840 5841 5842 5842 5842 5842 5842 5843 5843 5842 5841 5841 5841 5840 5840 5839 5840 5841 5842 5844 5844 5846 5846 5846 5846 5846 5846 5845 5844 5842 5841 5839 5837 5836 5835 5835 5833 5833 5833 5834 5833 5834
5831 5832 5834 5835 5837 5838 5839 5839 5840 5840 5840 5841 5841 5840 5840 5840 5839 5839 5839 5839 5839 5839 5840 5842 5843 5843 5844 5845 5845 5845 5845 5844 5843 5842 5840 5839 5837 5836 5834 5833 5832 5831 5831 5829 5829 5829 5829
5827 5829 5830 5832 5833 5835 5836 5837 5837 5837 5838 5838 5839 5838 5838 5837 5838 5838 5838 5838 5837 5838 5838 5839 5841 5841 5842 5844 5843 5843 5843 5842 5841 5839 5838 5836 5834 5833 5832 5831 5830 5829 5828 5827 5826 5827 5827
5824 5825 5826 5828 5830 5832 5833 5834 5834 5834 5835 5835 5836 5836 5836 5835 5835 5836 5836 5836 5835 5836 5836 5837 5838 5838 5840 5840 5840 5840 5839 5838 5837 5836 5835 5834 5832 5830 5828 5828 5827 5825 5824 5823 5823 5822 5822
5822 5823 5824 5824 5826 5828 5829 5830 5831 5831 5832 5833 5833 5833 5833 5832 5832 5832 5833 5833 5833 5833 5833 5833 5834 5835 5836 5836 5836 5836 5836 5835 5834 5833 5832 5830 5829 5827 5825 5824 5823 5822 5821 5819 5817 5817 5817
5817 5820 5821 5822 5823 5825 5825 5826 5827 5828 5829 5830 5830 5830 5830 5830 5830 5829 5829 5830 5829 5829 5830 5829 5829 5831 5831 5831 5831 5832 5832 5831 5830 5829 5828 5827 5825 5824 5822 5820 5819 5818 5816 5815 5814 5814 5811
5812 5814 5816 5818 5820 5821 5822 5823 5823 5824 5825 5826 5826 5826 5826 5827 5827 5827 5826 5826 5827 5826 5825 5824 5825 5825 5825 5826 5826 5827 5827 5826 5825 5825 5824 5822 5822 5820 5818 5816 5814 5812 5811 5808 5806 5806 5804
5810 5811 5812 5814 5816 5817 5818 5820 5820 5820 5820 5821 5822 5823 5823 5823 5824 5823 5822 5821 5821 5821 5820 5818 5818 5818 5819 5820 5821 5821 5822 5822 5820 5819 5818 5818 5816 5815 5813 5811 5810 5808 5806 5803 5800 5798 5796
5807 5808 5809 5810 5811 5812 5814 5816 5817 5817 5817 5817 5818 5819 5820 5819 5819 5819 5818 5817 5816 5816 5815 5814 5814 5814 5815 5816 5816 5816 5815 5814 5814 5813 5812 5812 5812 5809 5807 5805 5804 5803 5800 5797 5794 5790 5787
5802 5804 5806 5807 5808 5808 5809 5810 5812 5813 5815 5815 5815 5815 5815 5815 5816 5815 5814 5813 5812 5812 5811 5811 5810 5809 5810 5810 5810 5809 5809 5810 5809 5808 5806 5806 5804 5803 5802 5800 5798 5796 5793 5789 5786 5781 5777
5798 5800 5801 5802 5803 5804 5805 5806 5807 5808 5809 5811 5812 5812 5811 5811 5810 5811 5811 5810 5809 5809 5809 5808 5806 5806 5805 5806 5805 5804 5804 5803 5802 5801 5801 5799 5798 5796 5795 5793 5790 5788 5784 5780 5775 5770 5764
5791 5793 5795 5797 5798 5800 5801 5802 5804 5805 5805 5806 5808 5808 5808 5808 5807 5807 5807 5806 5806 5807 5805 5804 5803 5801 5801 5800 5799 5798 5798 5797 5796 5795 5794 5792 5790 5788 5786 5783 5780 5777 5773 5768 5763 5758 5752
5785 5787 5789 5790 5792 5794 5795 5797 5799 5801 5802 5803 5804 5804 5805 5804 5804 5803 5803 5803 5804 5801 5802 5801 5799 5798 5797 5796 5794 5793 5793 5792 5790 5789 5788 5785 5783 5780 5777 5773 5770 5765 5761 5756 5749 5745 5740
5776 5779 5782 5784 5786 5788 5789 5790 5792 5794 5796 5797 5799 5800 5800 5799 5799 5799 5799 5799 5798 5796 5796 5795 5795 5794 5794 5792 5790 5788 5787 5786 5784 5780 5777 5774 5773 5770 5767 5764 5759 5755 5750 5745 5736 5733 5728
5768 5770 5773 5776 5778 5780 5782 5784 5785 5787 5789 5791 5792 5792 5793 5793 5794 5794 5794 5793 5792 5792 5792 5791 5790 5788 5789 5785 5783 5782 5780 5779 5777 5774 5771 5765 5763 5760 5757 5751 5747 5742 5737 5731 5724 5719 5711
5757 5761 5763 5766 5769 5772 5774 5777 5779 5780 5781 5783 5785 5786 5786 5786 5786 5787 5787 5787 5785 5785 5784 5784 5783 5782 5781 5780 5777 5774 5771 5771 5767 5765 5761 5758 5753 5749 5744 5739 5735 5728 5722 5717 5711 5701 5695
5744 5748 5752 5755 5759 5762 5765 5768 5770 5772 5773 5774 5776 5778 5779 5780 5780 5780 5780 5780 5779 5778 5777 5776 5775 5773 5772 5770 5768 5765 5763 5760 5757 5753 5748 5744 5739 5736 5730 5726 5720 5714 5708 5703 5698 5689 5680
5734 5739 5743 5745 5748 5752 5755 5758 5761 5763 5764 5766 5767 5769 5771 5772 5773 5772 5771 5771 5771 5770 5768 5766 5766 5765 5762 5759 5757 5755 5752 5749 5744 5740 5736 5733 5726 5722 5717 5711 5705 5698 5694 5688 5680 5675 5667
5722 5728 5732 5734 5736 5740 5744 5747 5749 5753 5754 5756 5757 5760 5761 5763 5764 5764 5763 5763 5762 5761 5759 5758 5756 5754 5752 5749 5746 5743 5740 5737 5734 5729 5724 5720 5713 5708 5702 5698 5690 5684 5678 5672 5666 5659 5653
5708 5715 5719 5720 5725 5729 5731 5734 5738 5740 5745 5746 5747 5749 5751 5752 5753 5754 5754 5753 5752 5751 5750 5747 5745 5744 5741 5738 5735 5732 5728 5724 5720 5716 5711 5705 5701 5697 5690 5683 5678 5672 5666 5659 5652 5644 5639
5692 5699 5705 5708 5713 5717 5719 5723 5725 5729 5731 5735 5735 5739 5741 5743 5743 5744 5744 5744 5742 5741 5741 5739 5736 5733 5730 5727 5724 5720 5715 5711 5707 5701 5696 5690 5686 5682 5676 5672 5666 5660 5652 5646 5639 5634 5623
5674 5681 5690 5695 5700 5703 5708 5709 5714 5718 5720 5722 5724 5726 5729 5731 5732 5732 5732 5733 5731 5730 5729 5728 5725 5722 5720 5716 5713 5709 5704 5699 5694 5689 5683 5679 5674 5669 5664 5658 5652 5646 5640 5634 5627 5621 5614
5658 5665 5673 5679 5685 5690 5694 5699 5702 5703 5709 5711 5713 5714 5716 5719 5720 5720 5721 5719 5719 5718 5718 5716 5714 5712 5708 5705 5700 5695 5690 5686 5682 5677 5672 5667 5661 5656 5652 5644 5637 5633 5629 5623 5615 5607 5600
5641 5650 5657 5663 5668 5674 5679 5683 5688 5692 5694 5698 5701 5702 5704 5706 5706 5706 5706 5706 5704 5704 5703 5702 5700 5697 5695 5690 5685 5681 5677 5673 5670 5664 5660 5654 5647 5641 5637 5631 5624 5619 5614 5608 5601 5594 5585
5625 5634 5641 5647 5652 5657 5661 5664 5670 5676 5680 5683 5686 5691 5692 5694 5694 5693 5693 5693 5692 5692 5690 5687 5686 5684 5681 5677 5671 5667 5666 5662 5659 5654 5648 5640 5633 5626 5621 5616 5612 5609 5603 5596 5588 5581 5568
5610 5619 5626 5632 5637 5642 5647 5650 5655 5661 5666 5669 5672 5676 5678 5681 5683 5681 5680 5680 5680 5678 5677 5676 5674 5671 5667 5663 5659 5655 5652 5649 5646 5641 5635 5628 5621 5615 5609 5602 5597 5595 5587 5580 5572 5564 5552
5598 5605 5611 5618 5623 5628 5633 5636 5641 5648 5653 5656 5660 5661 5664 5667 5669 5668 5668 5668 5667 5666 5665 5663 5661 5658 5655 5651 5647 5644 5640 5636 5632 5627 5621 5614 5608 5602 5595 5589 5587 5580 5572 5564 5556 5549 5535
5591 5594 5599 5604 5609 5614 5618 5621 5628 5634 5639 5643 5647 5649 5652 5653 5653 5654 5656 5655 5654 5653 5652 5651 5650 5646 5644 5639 5635 5631 5626 5622 5618 5613 5607 5601 5596 5591 5584 5577 5573 5566 5558 5550 5539 5528 5518
5583 5586 5590 5595 5598 5602 5606 5611 5617 5622 5627 5631 5635 5637 5638 5640 5642 5641 5641 5642 5641 5641 5640 5638 5637 5633 5630 5626 5621 5617 5614 5609 5605 5601 5595 5589 5585 5579 5573 5565 5557 5550 5542 5532 5522 5512 5502